Omak, WA

11:41 PM PDT on May 26, 2017 (GMT -0700)
Omak

Weather History for KOMK - March, 2012

Change the Weather History Date:

Saturday, March 3, 2012

  Actual Average Record
Temperature  
Mean Temperature 42 °F 36 °F  
Max Temperature 55 °F 47 °F 59 °F (1931)
Min Temperature 28 °F 26 °F 8 °F (1955)
Degree Days  
Heating Degree Days 23 29  
Month to date heating degree days 91 87  
Since 1 July heating degree days 5161 4948  
Cooling Degree Days 0 0  
Month to date cooling degree days 0 0  
Year to date cooling degree days 0 0  
Moisture  
Dew Point 31 °F    
Average Humidity 71    
Maximum Humidity 92    
Minimum Humidity 50    
Precipitation  
Precipitation 0.00 in 0.04 in 0.53 in (1998)
Month to date precipitation 0.00 0.13  
Year to date precipitation 2.23 3.43  
Sea Level Pressure  
Sea Level Pressure 30.16 in    
Wind  
Wind Speed 8 mph (South)    
Max Wind Speed 22 mph    
Max Gust Speed 28 mph    
Visibility 10 miles    
Events      
T = Trace of Precipitation, MM = Missing Value Source: NWS Daily Summary

Daily Weather History Graph

Daily Weather History Graph

Search for Another Location

Airport or City:

Trip Planner

Search our weather history database for the weather conditions in past years. The results will help you decide how hot, cold, wet, or windy it might be!

Date:

Astronomy

Mar. 03, 2012 Rise Set
Actual Time 6:34 AM PST 5:46 PM PST
Civil Twilight 6:03 AM PST 6:17 PM PST
Nautical Twilight 5:26 AM PST 6:53 PM PST
Astronomical Twilight 4:50 AM PST 7:30 PM PST
Moon 12:41 PM PST (3/3) 3:35 AM PST (3/3)
Length of Visible Light 12h 14m
Length of Day
11h 11m
Waxing Gibbous, 76% of the Moon is Illuminated
Mar 3
Waxing Gibbous
Mar 8
Full
Mar 14
Last Quarter
Mar 22
New
Mar 30
First Quarter

Hourly Weather History & Observations

Time (PST) Temp. Windchill Dew Point Humidity Pressure Visibility Wind Dir Wind Speed Gust Speed Precip Events Conditions
12:53 AM 33.1 °F - 28.0 °F 82% 30.20 in 10.0 mi Calm Calm - N/A   Clear
1:53 AM 32.0 °F - 27.0 °F 82% 30.19 in 10.0 mi Calm Calm - N/A   Clear
2:53 AM 32.0 °F - 27.0 °F 82% 30.18 in 10.0 mi Calm Calm - N/A   Mostly Cloudy
3:53 AM 30.0 °F - 26.1 °F 85% 30.16 in 10.0 mi Calm Calm - N/A   Partly Cloudy
4:53 AM 30.9 °F - 27.0 °F 85% 30.17 in 10.0 mi Calm Calm - N/A   Partly Cloudy
5:53 AM 28.9 °F - 26.1 °F 89% 30.16 in 10.0 mi Calm Calm - N/A   Clear
6:53 AM 28.9 °F 25.2 °F 26.1 °F 89% 30.18 in 10.0 mi North 3.5 mph - N/A   Scattered Clouds
7:53 AM 33.1 °F - 28.0 °F 82% 30.17 in 10.0 mi Calm Calm - N/A   Overcast
8:53 AM 35.1 °F 32.2 °F 28.0 °F 76% 30.17 in 10.0 mi South 3.5 mph - N/A   Overcast
9:53 AM 39.9 °F 36.7 °F 30.0 °F 68% 30.17 in 10.0 mi South 4.6 mph - N/A   Overcast
10:53 AM 43.0 °F 37.7 °F 30.9 °F 62% 30.16 in 10.0 mi South 9.2 mph - N/A   Overcast
11:53 AM 46.0 °F 41.0 °F 33.1 °F 61% 30.16 in 10.0 mi South 10.4 mph - N/A   Overcast
12:53 PM 50.0 °F - 35.1 °F 57% 30.14 in 10.0 mi SSE 13.8 mph - N/A   Overcast
1:53 PM 53.1 °F - 35.1 °F 50% 30.12 in 10.0 mi South 15.0 mph 24.2 mph N/A   Overcast
2:53 PM 54.0 °F - 36.0 °F 51% 30.12 in 10.0 mi South 19.6 mph 26.5 mph N/A   Overcast
3:53 PM 54.0 °F - 35.1 °F 49% 30.13 in 10.0 mi South 18.4 mph - N/A   Overcast
4:53 PM 53.1 °F - 35.1 °F 50% 30.13 in 10.0 mi SSE 15.0 mph - N/A   Mostly Cloudy
5:53 PM 50.0 °F - 35.1 °F 57% 30.14 in 10.0 mi South 10.4 mph - N/A   Overcast
6:53 PM 46.9 °F - 35.1 °F 63% 30.15 in 10.0 mi SSE 9.2 mph - N/A   Overcast
7:53 PM 46.0 °F 41.0 °F 34.0 °F 63% 30.16 in 10.0 mi South 10.4 mph - N/A   Overcast
8:53 PM 43.0 °F 37.2 °F 34.0 °F 71% 30.17 in 10.0 mi SSE 10.4 mph - N/A   Overcast
9:53 PM 43.0 °F 36.8 °F 34.0 °F 71% 30.18 in 10.0 mi SSE 11.5 mph - N/A   Mostly Cloudy
10:53 PM 41.0 °F 35.8 °F 33.1 °F 73% 30.19 in 10.0 mi South 8.1 mph - N/A   Partly Cloudy
11:53 PM 42.1 °F 36.6 °F 33.1 °F 70% 30.19 in 10.0 mi SE 9.2 mph - N/A   Scattered Clouds